Montego Bay, Jamaica

3:10 AM EST on June 26, 2017 (GMT -0500)
Sangster International

Weather History for MKJS - October, 2013

Change the Weather History Date:

Saturday, October 5, 2013

  Actual Average Record
Temperature  
Mean Temperature 84 °F -  
Max Temperature 91 °F 85 °F 91 °F (2013)
Min Temperature 76 °F 76 °F 75 °F (1996)
Cooling Degree Days 18    
Growing Degree Days 34 (Base 50)    
Moisture  
Dew Point 78 °F    
Average Humidity 85    
Maximum Humidity 100    
Minimum Humidity 70    
Precipitation  
Precipitation 0.00 in - - ()
Sea Level Pressure  
Sea Level Pressure 29.90 in    
Wind  
Wind Speed 5 mph ()    
Max Wind Speed 13 mph    
Max Gust Speed -    
Visibility 8.2 miles    
Events Thunderstorm    
Averages and records for this station are not official NWS values.
T = Trace of Precipitation, MM = Missing Value Source: Averaged Metar Reports

Daily Weather History Graph

Daily Weather History Graph

Search for Another Location

Airport or City:

Trip Planner

Search our weather history database for the weather conditions in past years. The results will help you decide how hot, cold, wet, or windy it might be!

Date:

Astronomy

Oct. 05, 2013 Rise Set
Actual Time 6:03 AM EST 5:56 PM EST
Civil Twilight 5:41 AM EST 6:18 PM EST
Nautical Twilight 5:15 AM EST 6:43 PM EST
Astronomical Twilight 4:50 AM EST 7:09 PM EST
Moon 6:30 AM EST (10/5) 6:27 PM EST (10/5)
Length of Visible Light 12h 37m
Length of Day
11h 53m
New Moon, 1% of the Moon is Illuminated
Oct 5
New Moon
Oct 11
First Quarter
Oct 18
Full
Oct 26
Last Quarter
Nov 3
New

Hourly Weather History & Observations

Time (EST) Temp. Heat Index Dew Point Humidity Pressure Visibility Wind Dir Wind Speed Gust Speed Precip Events Conditions
12:00 AM 78.8 °F - 77.0 °F 94% 29.95 in 6.2 mi East 3.5 mph - N/A Thunderstorm Partly Cloudy
1:00 AM 79 °F - 77 °F 92% 29.93 in 12 mi SE 2.3 mph - -   Haze
1:00 AM 78.8 °F - 77.0 °F 94% 29.92 in 6.2 mi SE 2.3 mph - N/A   Partly Cloudy
2:00 AM 78.8 °F - 77.0 °F 94% 29.89 in 6.2 mi East 4.6 mph - N/A   Partly Cloudy
3:00 AM 78.8 °F - 78.8 °F 100% 29.89 in 6.2 mi South 1.2 mph - N/A   Partly Cloudy
4:00 AM 78 °F - 77 °F 95% 29.89 in 12 mi SE 4.6 mph - -   Haze
4:00 AM 78.8 °F - 77.0 °F 94% 29.89 in 6.2 mi SE 4.6 mph - N/A   Partly Cloudy
5:00 AM 77.0 °F - 77.0 °F 100% 29.89 in 6.2 mi NW 1.2 mph - N/A   Partly Cloudy
6:00 AM 77.0 °F - 77.0 °F 100% 29.89 in 6.2 mi SSW 2.3 mph - N/A   Partly Cloudy
7:00 AM 81 °F - 78 °F 89% 29.91 in 12 mi ESE 3.5 mph - -   Haze
7:00 AM 80.6 °F 88.1 °F 78.8 °F 94% 29.89 in 6.2 mi ESE 3.5 mph - N/A   Partly Cloudy
8:00 AM 86.0 °F 101.9 °F 80.6 °F 84% 29.92 in 6.2 mi NE 1.2 mph - N/A   Partly Cloudy
9:00 AM 87.8 °F 104.9 °F 80.6 °F 79% 29.92 in 6.2 mi East 5.8 mph - N/A   Partly Cloudy
10:00 AM 87 °F - 80 °F 75% 29.93 in 14 mi East 10.4 mph - -   Scattered Clouds
10:00 AM 87.8 °F 104.9 °F 80.6 °F 79% 29.92 in 6.2 mi ENE 10.4 mph - N/A   Partly Cloudy
11:00 AM 87.8 °F 108.2 °F 82.4 °F 84% 29.92 in 6.2 mi ENE 11.5 mph - N/A   Partly Cloudy
12:00 PM 87.8 °F 108.2 °F 82.4 °F 84% 29.89 in 6.2 mi NE 12.7 mph - N/A   Scattered Clouds
1:00 PM 88 °F - 81 °F 76% 29.89 in 16 mi ENE 11.5 mph - -   Partly Cloudy
1:00 PM 87.8 °F 104.9 °F 80.6 °F 79% 29.89 in 6.2 mi ENE 11.5 mph - N/A   Scattered Clouds
2:00 PM 87.8 °F 108.2 °F 82.4 °F 84% 29.86 in 6.2 mi NE 11.5 mph - N/A   Scattered Clouds
3:00 PM 86.0 °F 101.9 °F 80.6 °F 84% 29.86 in 6.2 mi ENE 11.5 mph - N/A   Scattered Clouds
4:00 PM 87 °F - 78 °F 70% 29.86 in 16 mi ENE 9.2 mph - -   Mostly Cloudy
4:00 PM 87.8 °F 102.5 °F 78.8 °F 75% 29.86 in 6.2 mi ENE 9.2 mph - N/A   Partly Cloudy
5:00 PM 86.0 °F 99.3 °F 78.8 °F 79% 29.86 in 6.2 mi East 9.2 mph - N/A   Partly Cloudy
6:00 PM 82.4 °F 90.9 °F 77.0 °F 84% 29.86 in 6.2 mi East 4.6 mph - N/A   Partly Cloudy
7:00 PM 82 °F - 74 °F 70% 29.88 in 16 mi South 4.6 mph - -   Scattered Clouds
7:00 PM 82.4 °F 88.2 °F 73.4 °F 74% 29.86 in 6.2 mi South 4.6 mph - N/A Thunderstorm Partly Cloudy
8:00 PM 82.4 °F 88.2 °F 73.4 °F 74% 29.89 in 6.2 mi SE 3.5 mph - N/A   Partly Cloudy
9:00 PM 80.6 °F 86.2 °F 75.2 °F 84% 29.92 in 6.2 mi SSE 4.6 mph - N/A   Partly Cloudy
10:00 PM 81 °F - 76 °F 81% 29.93 in 16 mi ESE 2.3 mph - -   Scattered Clouds
10:00 PM 80.6 °F 87.1 °F 77.0 °F 89% 29.92 in 6.2 mi Variable 2.3 mph - N/A   Partly Cloudy
11:00 PM 80.6 °F 87.1 °F 77.0 °F 89% 29.92 in 6.2 mi Variable 1.2 mph - N/A Thunderstorm Partly Cloudy